Location: Dehesa de la Cepeda
(40.6574°N, 4.3013°W)
Time: 21:35:22
(UTC+00:00)

Vanguard 3 - Pass Details

Date: 03 August 2021
Orbit: 510 x 3260 km, 33.3° (Epoch: 22 September)

Event Time Altitude Azimuth Distance (km) Brightness Sun altitude
Rises 01:40:55 0° 277° (W) 7,226 11.9 -29.1°
Reaches altitude 10° 01:49:48 10° 257° (WSW) 6,011 11.2 -28.5°
Enters shadow 01:51:43 12° 252° (WSW) 5,796 11.1 -28.4°
